Location: ?????
(44.4284°N, 135.2222°E)
Time: 10:19:57
(UTC+00:00)

DELTA 2 R/B (1) - Pass Details

Date: 21 January 2026
Orbit: 786 x 800 km, 39.6° (Epoch: 10 February)

Event Time Altitude Azimuth Distance (km) Brightness Sun altitude
Rises 08:25:08 0° 243° (WSW) 3,286 9.5 -6.1°
Reaches altitude 10° 08:27:42 10° 237° (WSW) 2,355 7.7 -6.5°
Maximum altitude 08:32:57 44° 167° (SSE) 1,082 4.4 -7.4°
Drops below altitude 10° 08:38:11 10° 96° (E) 2,350 5.5 -8.3°
Enters shadow 08:38:47 - 95° (E) 2,561 5.6 -8.4°
